Location: Newark
(60.0000°N, 100.0000°E)
Time: 06:56:09
(UTC+00:00)

N. Korean satellite - Pass Details

Date: 21 November 2019
Orbit: 456 x 506 km, 97.2° (Epoch: 06 December)

Event Time Altitude Azimuth Distance (km) Brightness Sun altitude
Rises 11:13:55 0° 203° (SSW) 2,582 10.7 -18.1°
Reaches altitude 10° 11:16:24 10° 220° (SW) 1,711 10.0 -18.5°
Maximum altitude 11:19:13 20° 270° (W) 1,202 9.5 -18.8°
Drops below altitude 10° 11:22:04 10° 320° (NW) 1,732 9.8 -19.2°
Sets 11:24:35 0° 337° (NNW) 2,625 10.5 -19.5°
